TimeEDT,TemperatureF,Dew PointF,Humidity,Sea Level PressureIn,VisibilityMPH,Wind Direction,Wind SpeedMPH,Gust SpeedMPH,PrecipitationIn,Events,Conditions,WindDirDegrees,DateUTC
12:53 AM,72.0,70.0,93,30.06,10.0,Calm,Calm,-,N/A,,Clear,0,2013-07-14 04:53:00
1:12 AM,69.8,69.8,100,30.07,10.0,Calm,Calm,-,N/A,,Partly Cloudy,0,2013-07-14 05:12:00
1:51 AM,69.8,69.8,100,30.07,10.0,Calm,Calm,-,N/A,,Mostly Cloudy,0,2013-07-14 05:51:00
1:53 AM,71.1,70.0,96,30.07,10.0,Calm,Calm,-,N/A,,Mostly Cloudy,0,2013-07-14 05:53:00
2:02 AM,71.6,69.8,94,30.07,10.0,Calm,Calm,-,N/A,,Mostly Cloudy,0,2013-07-14 06:02:00
2:18 AM,71.6,69.8,94,30.07,10.0,Calm,Calm,-,N/A,,Mostly Cloudy,0,2013-07-14 06:18:00
2:25 AM,71.6,69.8,94,30.07,10.0,Calm,Calm,-,N/A,,Mostly Cloudy,0,2013-07-14 06:25:00
2:53 AM,72.0,71.1,97,30.06,10.0,Calm,Calm,-,N/A,,Overcast,0,2013-07-14 06:53:00
3:53 AM,72.0,71.1,97,30.07,10.0,Calm,Calm,-,N/A,,Overcast,0,2013-07-14 07:53:00
4:53 AM,73.0,72.0,96,30.07,9.0,Calm,Calm,-,0.01,,Overcast,0,2013-07-14 08:53:00
5:17 AM,73.4,71.6,94,30.09,10.0,Calm,Calm,-,0.00,,Overcast,0,2013-07-14 09:17:00
5:53 AM,73.0,72.0,96,30.09,10.0,East,3.5,-,0.01,,Overcast,100,2013-07-14 09:53:00
6:23 AM,73.4,71.6,94,30.10,2.5,SE,5.8,-,0.07,Rain,Rain,130,2013-07-14 10:23:00
6:29 AM,73.4,71.6,94,30.10,6.0,ESE,3.5,-,0.08,Rain,Light Rain,120,2013-07-14 10:29:00
6:38 AM,73.4,71.6,94,30.11,7.0,Calm,Calm,-,0.08,Rain,Light Rain,0,2013-07-14 10:38:00
6:53 AM,73.0,72.0,96,30.11,10.0,East,5.8,-,0.08,,Overcast,80,2013-07-14 10:53:00
7:11 AM,73.4,71.6,94,30.12,1.2,ESE,9.2,-,0.07,Rain,Heavy Rain,110,2013-07-14 11:11:00
7:20 AM,73.4,71.6,94,30.12,3.0,East,5.8,-,0.12,Rain,Light Rain,100,2013-07-14 11:20:00
7:31 AM,73.4,71.6,94,30.12,10.0,East,3.5,-,0.12,,Overcast,90,2013-07-14 11:31:00
7:53 AM,73.9,72.0,93,30.12,10.0,East,4.6,-,0.12,,Overcast,80,2013-07-14 11:53:00
8:03 AM,75.2,73.4,94,30.13,10.0,East,5.8,-,N/A,,Overcast,80,2013-07-14 12:03:00
8:29 AM,75.2,73.4,94,30.12,10.0,ENE,5.8,-,N/A,,Mostly Cloudy,70,2013-07-14 12:29:00
8:53 AM,77.0,73.0,88,30.13,10.0,East,9.2,-,N/A,,Overcast,80,2013-07-14 12:53:00
9:53 AM,79.0,73.9,84,30.13,10.0,East,9.2,-,N/A,,Overcast,80,2013-07-14 13:53:00
9:57 AM,78.8,73.4,83,30.14,10.0,East,8.1,-,N/A,,Overcast,90,2013-07-14 13:57:00
10:53 AM,79.0,73.9,84,30.13,10.0,ENE,9.2,-,0.00,,Overcast,70,2013-07-14 14:53:00
11:53 AM,78.1,73.0,84,30.14,10.0,East,9.2,-,0.00,Rain,Light Rain,90,2013-07-14 15:53:00
12:00 PM,77.0,73.4,89,30.15,10.0,East,8.1,-,0.00,Rain,Light Rain,90,2013-07-14 16:00:00
12:18 PM,75.2,73.4,94,30.15,1.8,East,8.1,-,0.02,Rain,Rain,90,2013-07-14 16:18:00
12:26 PM,75.2,73.4,94,30.15,1.2,ESE,11.5,19.6,0.04,Rain,Light Rain,120,2013-07-14 16:26:00
12:31 PM,75.2,73.4,94,30.15,1.8,SE,13.8,21.9,0.05,Rain,Light Rain,130,2013-07-14 16:31:00
12:36 PM,73.4,73.4,100,30.16,3.0,SE,13.8,21.9,0.05,Rain,Light Rain,130,2013-07-14 16:36:00
12:41 PM,73.4,73.4,100,30.16,1.8,SE,17.3,27.6,0.06,Rain,Rain,130,2013-07-14 16:41:00
12:48 PM,73.4,73.4,100,30.16,1.8,SE,19.6,28.8,0.09,Rain,Rain,130,2013-07-14 16:48:00
12:51 PM,75.2,73.4,94,30.17,3.0,SE,13.8,28.8,0.09,Rain,Rain,130,2013-07-14 16:51:00
12:53 PM,75.0,73.0,94,30.16,5.0,SE,12.7,28.8,0.09,Rain,Rain,130,2013-07-14 16:53:00
1:53 PM,79.0,73.0,82,30.16,10.0,SE,13.8,20.7,0.00,,Mostly Cloudy,130,2013-07-14 17:53:00
2:53 PM,81.0,73.9,79,30.16,5.0,SE,15.0,19.6,N/A,,Haze,140,2013-07-14 18:53:00
3:37 PM,77.0,73.4,89,30.16,10.0,ESE,3.5,-,0.05,,Mostly Cloudy,120,2013-07-14 19:37:00
3:53 PM,79.0,75.0,88,30.15,10.0,East,6.9,-,0.05,,Mostly Cloudy,90,2013-07-14 19:53:00
4:53 PM,82.9,73.0,72,30.13,10.0,SE,10.4,19.6,N/A,,Partly Cloudy,140,2013-07-14 20:53:00
5:53 PM,82.9,73.0,72,30.13,10.0,ESE,9.2,17.3,N/A,,Partly Cloudy,120,2013-07-14 21:53:00
6:28 PM,73.4,69.8,88,30.17,4.0,SE,10.4,23.0,0.05,Rain,Light Rain,140,2013-07-14 22:28:00
6:53 PM,73.0,70.0,90,30.16,7.0,SE,5.8,-,0.06,Rain,Light Rain,130,2013-07-14 22:53:00
7:45 PM,73.4,71.6,94,30.17,10.0,ESE,5.8,-,0.00,,Partly Cloudy,110,2013-07-14 23:45:00
7:53 PM,73.9,71.1,91,30.17,10.0,ESE,4.6,-,0.00,,Clear,110,2013-07-14 23:53:00
8:53 PM,73.0,72.0,96,30.18,10.0,Calm,Calm,-,0.01,,Clear,0,2013-07-15 00:53:00
9:53 PM,72.0,71.1,97,30.20,10.0,Calm,Calm,-,0.00,,Clear,0,2013-07-15 01:53:00
10:53 PM,72.0,71.1,97,30.22,6.0,Calm,Calm,-,N/A,,Clear,0,2013-07-15 02:53:00
11:33 PM,73.4,71.6,94,30.22,10.0,Calm,Calm,-,N/A,,Mostly Cloudy,0,2013-07-15 03:33:00
11:46 PM,73.4,71.6,94,30.22,10.0,Calm,Calm,-,N/A,,Scattered Clouds,0,2013-07-15 03:46:00
11:53 PM,72.0,71.1,97,30.22,10.0,Calm,Calm,-,N/A,,Partly Cloudy,0,2013-07-15 03:53:00